Probability
6 3 3 0 6 10 10 6 10 13 16 13 6 6 3 3 3 10 10 23 39 52 55 55 58 52 55 48 52 52 48 52 55 55 45 42 48 45 45 35 35 26 29
6 0 0 0 0 3 3 6 6 10 10 3 6 6 3 3 3 3 10 10 26 39 45 48 45 52 55 48 48 45 48 52 52 45 42 45 39 42 39 35 32 26 26
0 0 0 0 0 0 3 6 6 3 3 3 6 6 6 3 3 3 6 13 16 26 39 42 48 45 48 48 42 42 45 45 52 52 45 39 39 32 26 32 26 23 23
0 0 0 0 0 3 3 3 3 3 3 3 3 6 6 3 3 0 0 6 10 6 16 23 32 39 42 39 42 35 45 39 45 45 42 42 35 32 19 23 26 26 23
3 3 3 3 3 3 3 3 3 3 3 3 3 0 0 3 3 0 0 0 3 3 6 10 19 26 29 32 29 29 39 48 48 45 39 39 39 35 29 26 19 19 19
6 3 6 6 3 3 3 3 3 0 0 0 0 0 0 0 0 0 0 0 0 3 3 3 6 6 19 29 32 32 32 35 45 45 42 39 39 35 26 26 16 16 10
10 10 10 6 3 3 3 3 0 0 0 0 3 3 0 0 0 0 3 3 3 0 3 3 6 6 10 10 19 32 32 32 32 39 35 35 39 32 26 26 16 13 10
10 6 6 6 6 10 3 3 0 0 0 0 0 0 0 0 0 0 3 3 3 3 3 3 3 6 6 10 6 16 26 32 29 29 29 26 16 19 19 19 16 13 10
6 3 3 3 3 6 3 0 0 0 0 0 0 0 0 0 0 0 0 6 3 0 3 3 0 6 3 3 6 10 13 10 19 23 29 29 16 19 19 19 19 16 10
6 3 3 3 3 0 0 0 0 0 0 0 0 0 0 0 0 3 0 3 6 6 3 3 3 0 0 0 0 0 3 0 10 16 23 23 16 16 16 19 19 19 13
3 3 0 0 0 0 0 0 0 0 0 0 0 0 0 0 0 3 0 0 0 3 3 3 3 0 0 0 0 0 0 0 0 0 0 6 6 10 13 19 19 19 16
0 0 0 0 0 3 3 3 3 3 3 3 0 0 0 0 0 0 0 0 0 0 0 0 3 3 0 0 0 0 0 0 0 0 0 0 0 3 10 13 16 19 10
3 3 3 0 0 3 3 3 3 3 3 3 0 0 0 0 0 0 0 0 0 0 0 0 0 0 0 0 0 0 0 0 0 0 0 0 0 0 3 6 6 3 6
10 6 3 3 3 3 3 3 3 3 0 0 0 0 0 0 0 0 0 0 0 0 0 0 0 0 0 0 0 0 0 0 0 0 0 0 0 0 0 0 0 0 0
10 6 3 3 3 3 3 3 3 0 0 0 0 0 0 0 0 0 0 0 0 0 0 0 0 0 0 0 0 0 0 0 0 0 0 0 0 0 0 0 0 0 0
3 3 0 0 0 0 0 0 0 0 0 0 0 0 0 0 0 0 0 0 0 0 0 0 0 0 0 0 0 0 0 0 0 0 0 0 0 0 0 0 0 0 0
3 3 3 0 0 0 0 0 0 0 0 0 0 0 0 0 0 0 0 0 0 0 0 0 0 0 0 0 0 0 0 0 0 0 0 0 0 0 0 0 0 0 0
6 3 3 3 0 0 0 0 0 0 0 0 0 0 0 0 0 0 0 0 0 0 0 0 0 0 0 0 0 0 0 0 0 0 0 0 0 0 0 0 0 0 0
3 3 3 3 3 0 0 0 0 0 0 0 0 0 0 0 0 0 0 0 0 0 0 0 0 0 0 0 0 0 0 0 0 0 0 0 0 0 0 0 0 0 0
3 3 3 3 3 0 0 0 0 0 0 0 0 0 0 0 0 0 0 0 0 0 0 0 0 0 0 0 0 0 0 0 0 0 0 0 0 0 0 0 0 0 0
3 3 3 3 0 0 0 0 0 0 0 0 0 0 0 0 0 0 0 0 0 0 0 0 0 0 0 0 0 0 0 0 0 0 0 0 0 0 0 0 0 0 0
0 3 0 0 0 0 0 0 0 0 0 0 0 0 0 0 0 0 0 0 0 0 0 0 0 0 0 0 0 0 0 0 0 0 0 0 0 0 0 0 0 0 0
0 0 0 0 0 0 0 0 0 0 0 0 0 0 0 0 0 0 0 0 0 0 0 0 0 0 0 0 0 0 0 0 0 0 0 0 0 0 0 0 0 0 0
0 0 0 0 0 0 0 0 0 0 0 0 0 0 0 0 0 0 0 0 0 0 0 0 0 0 0 0 0 0 0 0 0 0 0 0 0 0 0 0 0 0 0
0 0 0 0 0 0 0 0 0 0 0 0 0 0 0 0 0 0 0 0 0 0 0 0 0 0 0 0 0 0 0 0 0 0 0 0 0 0 0 0 0 0 0
0 0 0 0 0 0 0 0 0 0 0 0 0 0 0 0 0 0 0 0 0 0 0 0 0 0 0 0 0 0 0 0 0 0 0 0 0 0 0 0 0 0 0
Height
5854 5853 5853 5853 5853 5853 5853 5853 5854 5854 5855 5855 5856 5856 5857 5858 5859 5860 5860 5861 5862 5863 5864 5865 5866 5867 5868 5868 5869 5870 5871 5872 5873 5874 5875 5875 5876 5876 5877 5877 5878 5878 5879
5850 5850 5850 5850 5850 5849 5850 5850 5850 5851 5851 5851 5852 5853 5853 5854 5855 5856 5857 5858 5859 5860 5861 5862 5862 5864 5864 5865 5866 5867 5868 5868 5869 5870 5871 5872 5872 5873 5873 5874 5875 5875 5876
5847 5847 5847 5846 5846 5846 5846 5846 5846 5847 5847 5848 5848 5849 5850 5850 5851 5852 5853 5854 5855 5856 5857 5858 5858 5859 5860 5861 5862 5863 5864 5865 5865 5866 5867 5868 5868 5869 5869 5870 5871 5872 5872
5843 5843 5843 5843 5842 5842 5842 5842 5842 5843 5843 5844 5844 5845 5846 5846 5847 5848 5849 5850 5851 5852 5853 5853 5854 5855 5856 5857 5858 5858 5859 5860 5861 5862 5863 5864 5864 5865 5865 5866 5867 5867 5868
5840 5839 5839 5839 5838 5838 5838 5838 5838 5838 5839 5839 5840 5840 5841 5842 5842 5843 5844 5845 5846 5847 5848 5848 5849 5850 5851 5852 5853 5854 5855 5856 5857 5857 5858 5859 5860 5861 5861 5862 5862 5863 5864
5836 5836 5835 5835 5834 5834 5834 5834 5834 5834 5834 5835 5835 5836 5836 5837 5837 5838 5839 5840 5840 5841 5842 5843 5844 5845 5846 5847 5848 5849 5850 5851 5852 5853 5853 5854 5855 5856 5856 5857 5858 5858 5859
5832 5831 5831 5830 5830 5830 5830 5830 5830 5830 5830 5830 5831 5831 5831 5832 5833 5833 5834 5834 5835 5836 5837 5838 5839 5840 5841 5842 5843 5844 5845 5846 5846 5847 5848 5849 5849 5850 5851 5852 5852 5853 5854
5827 5827 5826 5826 5825 5825 5825 5825 5825 5825 5825 5825 5825 5826 5826 5827 5827 5828 5828 5829 5830 5830 5831 5832 5833 5834 5835 5836 5837 5838 5839 5840 5841 5841 5842 5843 5844 5844 5845 5846 5847 5847 5848
5823 5822 5821 5821 5820 5820 5819 5819 5819 5819 5820 5820 5820 5820 5821 5821 5821 5822 5822 5823 5824 5824 5825 5826 5827 5828 5829 5830 5831 5832 5833 5834 5835 5835 5836 5837 5838 5839 5839 5840 5841 5841 5842
5817 5817 5816 5816 5815 5815 5814 5814 5814 5814 5814 5814 5814 5814 5815 5815 5815 5816 5816 5816 5817 5818 5818 5819 5820 5821 5822 5824 5825 5826 5827 5827 5828 5829 5830 5831 5832 5832 5833 5834 5834 5835 5836
5813 5812 5811 5811 5810 5809 5809 5808 5808 5808 5808 5808 5808 5808 5809 5809 5809 5810 5810 5810 5810 5810 5811 5812 5813 5814 5815 5817 5818 5819 5820 5821 5821 5822 5823 5824 5824 5825 5826 5827 5827 5828 5828
5808 5807 5806 5805 5805 5804 5803 5802 5802 5802 5802 5802 5802 5802 5802 5803 5803 5803 5803 5803 5803 5803 5804 5805 5806 5807 5808 5809 5810 5811 5813 5814 5814 5815 5816 5817 5817 5818 5819 5820 5820 5821 5821
5802 5802 5801 5800 5799 5799 5798 5797 5796 5795 5795 5795 5795 5795 5795 5795 5795 5795 5796 5796 5796 5796 5796 5797 5798 5799 5801 5802 5803 5804 5805 5806 5807 5807 5808 5809 5810 5811 5811 5812 5813 5814 5814
5797 5797 5796 5794 5793 5792 5792 5791 5790 5789 5788 5787 5787 5787 5787 5787 5788 5788 5788 5789 5789 5790 5789 5790 5790 5791 5793 5794 5795 5796 5797 5798 5798 5799 5800 5801 5802 5803 5803 5804 5805 5806 5807
5792 5791 5790 5788 5787 5786 5785 5784 5783 5782 5781 5780 5780 5780 5780 5780 5780 5780 5780 5781 5782 5782 5783 5783 5783 5783 5784 5786 5787 5787 5788 5789 5790 5791 5791 5792 5793 5794 5795 5796 5797 5798 5799
5786 5785 5783 5782 5780 5779 5778 5777 5776 5775 5774 5773 5772 5772 5772 5771 5772 5772 5772 5773 5773 5774 5775 5775 5775 5775 5776 5777 5778 5779 5780 5780 5781 5782 5782 5783 5784 5785 5787 5788 5788 5789 5790
5780 5778 5776 5774 5773 5772 5771 5769 5768 5767 5766 5765 5765 5764 5764 5763 5763 5764 5764 5764 5765 5765 5766 5767 5767 5767 5767 5768 5769 5770 5770 5771 5772 5773 5773 5774 5775 5776 5777 5778 5779 5780 5782
5773 5771 5769 5767 5765 5764 5762 5761 5760 5759 5758 5757 5757 5756 5755 5755 5755 5755 5755 5756 5756 5757 5757 5758 5759 5759 5759 5759 5760 5761 5761 5762 5762 5763 5764 5765 5766 5767 5768 5769 5770 5771 5772
5765 5763 5761 5759 5757 5756 5754 5753 5752 5751 5750 5749 5749 5748 5747 5747 5746 5746 5746 5747 5747 5747 5748 5749 5749 5750 5750 5750 5750 5751 5752 5752 5753 5754 5754 5755 5756 5757 5758 5759 5760 5762 5763
5758 5756 5754 5752 5750 5748 5746 5745 5744 5743 5742 5741 5740 5739 5738 5738 5737 5737 5737 5737 5737 5738 5739 5739 5740 5740 5740 5741 5741 5741 5742 5743 5744 5744 5745 5746 5746 5747 5748 5750 5751 5752 5754
5751 5749 5747 5745 5742 5741 5739 5738 5737 5735 5734 5733 5731 5730 5729 5728 5728 5728 5728 5728 5728 5728 5729 5729 5730 5730 5731 5731 5732 5732 5732 5733 5734 5735 5735 5736 5737 5737 5738 5740 5741 5742 5743
5744 5742 5739 5738 5736 5734 5732 5731 5729 5728 5726 5724 5723 5722 5720 5720 5719 5719 5719 5719 5719 5719 5719 5720 5720 5721 5721 5721 5721 5722 5723 5724 5725 5727 5726 5727 5727 5728 5729 5730 5731 5733 5734
5737 5735 5732 5731 5729 5727 5725 5724 5722 5720 5718 5716 5715 5714 5713 5711 5710 5710 5710 5709 5709 5709 5710 5710 5710 5710 5710 5711 5711 5712 5713 5714 5716 5716 5717 5717 5718 5718 5719 5720 5722 5723 5724
5731 5728 5726 5724 5722 5720 5718 5716 5714 5712 5711 5709 5707 5706 5705 5703 5702 5701 5700 5700 5700 5700 5700 5700 5701 5701 5701 5701 5701 5702 5703 5704 5705 5706 5707 5708 5708 5709 5710 5710 5711 5712 5713
5724 5722 5720 5718 5716 5714 5711 5709 5707 5705 5703 5701 5700 5698 5697 5695 5694 5693 5692 5692 5692 5691 5690 5690 5691 5691 5691 5691 5692 5692 5693 5694 5695 5696 5697 5697 5698 5698 5699 5700 5701 5702 5703
5717 5715 5713 5711 5709 5706 5704 5702 5699 5697 5696 5694 5692 5690 5689 5687 5686 5684 5684 5683 5683 5682 5682 5681 5681 5682 5682 5682 5683 5683 5684 5684 5685 5687 5687 5687 5688 5688 5690 5690 5690 5691 5692
Wind_Speed
13 13 14 14 14 13 13 13 13 13 13 13 13 14 15 15 16 16 16 16 16 15 15 15 15 15 14 15 16 16 15 15 15 15 15 15 15 15 15 15 15 14 14
13 13 14 14 14 14 14 14 15 14 13 14 14 14 16 17 17 17 17 18 18 17 17 16 16 16 16 16 16 16 16 16 16 16 17 17 17 17 17 16 16 16 15
14 13 14 14 14 14 14 14 16 15 15 15 15 16 16 17 18 18 19 19 18 18 18 18 18 18 18 17 17 17 17 17 17 17 17 19 19 19 18 18 17 17 17
14 14 15 15 15 15 15 16 16 16 17 17 17 17 18 18 19 19 19 20 19 18 18 18 19 19 19 19 18 18 18 18 18 18 18 19 19 19 19 18 18 18 17
16 16 15 16 16 16 16 17 17 17 17 17 18 18 19 19 19 19 19 20 20 20 20 19 20 20 20 20 20 19 19 19 19 19 19 19 19 19 19 19 19 19 18
16 16 16 17 17 18 18 18 18 17 18 18 19 19 19 19 19 20 20 20 21 21 21 21 20 21 21 21 21 21 20 20 20 20 21 20 20 20 20 20 21 21 21
17 17 17 18 19 19 19 19 19 18 19 19 20 20 20 21 20 20 21 22 23 23 23 22 22 22 22 22 21 22 22 21 21 21 22 22 22 22 22 22 22 22 22
18 18 19 19 19 20 20 20 20 20 20 20 21 21 21 21 21 22 22 22 24 24 23 24 23 22 22 23 23 22 23 23 22 22 22 22 22 23 23 23 23 23 23
19 19 19 19 19 20 20 21 21 21 21 21 21 21 21 21 23 23 24 23 24 23 23 24 24 24 25 24 25 25 24 23 23 23 23 22 23 23 23 24 24 24 24
18 18 18 18 19 20 21 21 21 22 21 21 21 21 21 22 23 24 25 25 24 24 24 25 25 25 26 26 25 25 24 24 24 24 24 24 24 24 24 24 25 25 25
18 18 18 18 19 21 21 21 22 23 23 23 23 22 22 22 23 24 25 26 26 26 26 26 26 26 26 26 26 26 25 25 25 25 25 25 25 25 25 25 25 25 25
19 18 18 19 20 21 21 21 22 23 24 24 25 24 24 24 24 25 25 25 25 25 26 27 27 27 27 27 27 26 26 26 26 27 27 26 26 27 27 27 26 26 26
20 20 20 20 21 21 22 22 23 24 24 24 25 25 25 25 26 26 25 25 24 24 25 26 27 28 28 28 28 28 28 28 28 28 28 28 28 28 28 28 28 27 27
21 20 21 21 22 23 23 23 23 24 24 25 26 26 26 26 26 26 26 25 25 24 24 25 27 27 28 28 28 29 29 29 29 29 29 30 30 30 29 29 30 29 28
23 22 23 23 24 24 24 24 24 24 25 25 25 25 26 26 27 27 27 27 26 26 26 26 27 28 29 29 30 30 31 31 31 31 30 31 31 32 31 31 31 30 30
23 24 24 25 25 26 26 26 25 25 26 26 26 26 27 28 28 29 29 28 27 28 27 27 28 28 29 30 30 31 31 31 32 32 31 31 32 32 32 32 32 31 31
24 25 26 26 27 27 27 27 26 27 27 28 28 27 28 29 30 29 29 28 28 29 29 28 28 28 29 30 31 31 31 31 31 31 32 31 31 32 32 33 33 32 32
25 26 27 27 27 28 28 28 28 27 27 27 27 28 28 28 28 29 29 30 30 30 30 29 29 29 30 31 32 32 32 32 31 31 32 32 31 32 33 33 33 33 33
26 27 28 27 27 27 28 28 28 28 27 27 27 28 28 29 28 29 30 31 31 31 31 31 31 31 31 31 32 32 33 33 32 32 32 32 32 33 33 33 33 33 33
26 26 27 27 27 27 27 27 28 28 27 28 28 29 29 29 29 30 30 31 31 32 32 32 32 32 32 32 32 32 32 32 32 33 33 33 33 33 33 33 33 33 33
26 26 27 27 26 26 27 26 26 27 27 28 28 29 29 29 29 29 29 30 30 31 32 32 32 33 33 33 33 33 32 31 31 31 32 32 32 33 33 33 34 34 34
27 27 26 26 26 26 26 26 27 27 27 27 28 28 27 27 27 28 29 29 29 30 30 31 32 33 33 32 32 32 31 31 31 30 31 31 32 32 32 33 33 34 34
26 25 25 25 25 26 26 26 26 27 26 26 26 27 27 27 27 28 28 28 29 29 30 31 30 30 31 31 31 31 32 31 31 31 31 31 31 32 33 33 33 34 34
25 25 24 24 24 25 25 26 25 26 26 26 26 26 26 26 26 27 27 28 29 29 29 29 28 28 29 29 30 30 31 31 31 31 31 31 32 33 33 33 34 34 34
24 24 24 24 24 25 26 26 26 26 26 26 27 26 26 26 26 26 27 28 29 30 29 29 28 29 29 28 28 29 30 31 31 32 32 33 32 32 34 34 35 36 35
25 24 24 24 25 26 27 27 26 26 27 27 27 27 27 26 26 27 27 28 28 29 29 29 29 29 29 29 29 30 30 30 31 32 33 34 33 33 33 34 35 35 36
Wind_Direction
287 284 282 284 280 278 278 277 272 270 267 265 263 264 262 260 257 255 256 255 254 254 254 256 254 255 255 252 252 252 250 250 251 252 253 255 258 258 260 262 262 261 260
288 285 282 282 280 278 280 279 276 272 269 266 265 264 263 261 258 255 256 256 255 254 255 255 254 255 256 255 254 253 251 248 250 253 256 258 259 259 259 260 261 261 262
284 283 282 281 279 277 277 278 276 274 274 270 267 265 264 260 258 257 257 258 257 258 256 255 256 254 255 256 254 254 252 251 253 255 258 260 260 259 259 259 260 260 261
282 281 281 280 277 276 277 278 275 273 271 269 266 264 263 263 260 259 258 258 258 258 258 258 257 253 253 254 253 253 252 255 256 257 259 260 260 261 259 259 259 258 260
283 280 281 281 279 277 278 278 276 276 271 269 266 264 262 263 262 261 261 260 259 258 258 258 258 255 254 253 253 255 255 256 256 258 258 258 259 261 260 260 258 258 257
281 280 281 282 280 279 278 277 277 273 270 270 268 266 265 264 263 262 261 260 260 261 258 256 256 254 254 253 254 256 257 256 257 259 258 259 260 260 261 261 260 260 259
283 282 282 281 280 278 277 277 276 273 271 272 270 268 266 264 263 261 260 260 260 261 259 256 255 254 255 254 255 256 257 257 259 258 258 260 261 262 262 262 262 261 261
285 284 283 281 279 277 276 275 273 273 271 272 271 270 268 266 264 262 261 261 261 260 257 255 255 255 256 256 256 257 259 259 259 260 259 260 260 261 262 261 260 261 261
285 284 283 281 279 278 276 274 272 272 271 272 271 270 268 266 265 263 262 262 262 257 256 256 256 256 257 257 257 258 259 259 259 261 259 261 261 261 261 261 262 261 261
288 286 284 284 283 282 277 274 271 272 272 271 270 270 269 269 268 265 264 263 261 259 256 255 256 258 259 259 258 257 259 258 259 260 260 261 262 261 261 261 262 263 262
289 285 284 287 286 284 280 277 273 273 272 270 271 271 269 269 268 267 265 265 263 261 258 256 257 258 259 259 258 259 258 259 260 260 260 261 262 261 261 262 262 262 262
287 283 283 286 288 286 283 280 277 275 274 272 271 269 269 269 268 267 266 266 264 263 261 258 257 258 259 260 260 259 259 259 261 261 261 261 261 262 262 262 263 263 262
288 283 282 286 287 286 285 282 280 279 277 275 271 268 268 268 267 267 266 265 263 264 264 261 259 259 259 260 260 259 259 261 263 262 261 260 260 260 261 261 261 261 262
288 288 286 286 286 286 284 283 281 279 278 278 275 271 268 267 267 266 266 264 262 263 265 265 263 261 259 259 259 259 260 262 263 263 261 260 260 260 259 260 260 260 261
288 288 285 284 285 285 284 285 284 281 279 279 277 274 269 269 268 267 266 265 263 263 265 266 264 262 261 259 260 260 262 262 263 263 262 260 259 259 259 260 259 259 260
287 287 287 287 286 284 283 283 282 280 278 277 275 273 273 271 270 269 268 266 264 265 264 264 263 263 262 260 261 262 262 262 262 262 262 260 259 259 259 259 259 259 259
288 288 289 288 286 286 286 285 283 282 278 277 276 274 273 271 270 271 269 268 266 265 264 264 263 264 264 262 263 263 262 262 261 260 260 259 259 259 259 259 259 259 259
289 289 290 289 288 287 287 285 283 282 281 279 277 276 273 273 272 270 268 268 268 266 265 264 264 264 265 264 263 262 262 262 262 262 260 259 260 260 259 259 259 258 258
291 290 290 290 289 288 287 286 283 282 281 280 279 277 275 274 273 270 269 269 268 267 267 267 267 267 267 266 265 262 262 262 262 261 260 260 260 260 260 259 259 258 258
292 291 291 291 291 289 287 285 285 284 283 282 281 280 278 276 274 273 271 271 269 268 269 268 267 268 267 266 265 263 262 263 262 260 260 260 260 260 259 258 258 258 259
294 293 292 291 290 289 288 287 287 287 287 286 285 282 281 277 275 274 272 272 270 269 268 269 267 266 266 266 266 264 262 261 261 261 262 261 261 260 259 258 258 259 260
294 294 292 290 289 289 289 289 289 289 289 288 286 285 283 279 275 273 273 272 271 270 269 269 267 266 265 265 264 262 260 260 259 260 261 262 262 259 259 258 258 260 260
294 294 293 289 288 288 289 290 290 290 290 291 289 287 284 281 277 274 272 273 273 271 270 270 268 266 265 264 263 261 260 260 260 261 261 261 262 261 260 260 260 260 260
293 293 293 291 289 289 289 290 292 291 290 290 289 288 287 284 280 278 275 274 273 272 272 269 266 265 265 265 263 261 260 260 261 262 262 264 264 263 261 261 262 262 263
292 292 292 291 290 292 292 293 293 290 289 289 288 287 286 285 284 282 279 277 275 273 272 269 267 265 264 265 264 263 263 263 262 261 262 264 264 263 263 262 262 263 264
291 292 292 294 293 294 294 293 293 291 289 289 289 287 286 285 285 284 282 278 276 274 271 269 267 266 266 266 265 264 264 264 264 263 263 264 263 264 264 264 263 262 263